Weather History for Palmdale, CA

Change the Weather History Date:

Friday, May 24, 2013

  Actual Average Record
Temperature  
Mean Temperature 63 °F 70 °F  
Max Temperature 78 °F 86 °F 98 °F (2001)
Min Temperature 47 °F 54 °F 39 °F (1980)
Degree Days  
Heating Degree Days 2 1  
Month to date heating degree days 32 61  
Since 1 July heating degree days 2547 2911  
Cooling Degree Days 0 6  
Month to date cooling degree days 118 97  
Year to date cooling degree days 191 120  
Growing Degree Days 12 (Base 50)    
Moisture  
Dew Point 32 °F    
Average Humidity 34    
Maximum Humidity 54    
Minimum Humidity 14    
Precipitation  
Precipitation 0.00 in 0.00 in 0.00 in (2014)
Month to date precipitation T 0.22  
Year to date precipitation 0.71 5.20  
Since 1 July precipitation 1.00 8.18  
Snow  
Snow 0.00 in - - ()
Month to date snowfall 0.0  
Since 1 July snowfall 0.0  
Snow Depth 0.00 in    
Sea Level Pressure  
Sea Level Pressure 29.88 in    
Wind  
Wind Speed 12 mph (WSW)    
Max Wind Speed 26 mph    
Max Gust Speed 35 mph    
Visibility 10 miles    
Events      
T = Trace of Precipitation, MM = Missing Value Source: NWS Daily Summary

Daily Weather History Graph

Daily Weather History Graph

Search for Another Location

Airport:

Trip Planner

Search our weather history database for the weather conditions in past years. The results will help you decide how hot, cold, wet, or windy it might be!

Date:

Astronomy

May. 24, 2013 Rise Set
Actual Time 5:43 AM PDT 7:55 PM PDT
Civil Twilight 5:15 AM PDT 8:23 PM PDT
Nautical Twilight 4:40 AM PDT 8:58 PM PDT
Astronomical Twilight 4:02 AM PDT 9:36 PM PDT
Moon 7:43 PM PDT (5/24) 5:17 AM PDT (5/24)
Length of Visible Light 15h 08m
Length of Day
14h 11m
Full, 100% of the Moon is Illuminated
May 24
Full
May 24
Full
May 31
Last Quarter
Jun 8
New
Jun 16
First Quarter

Hourly Weather History & Observations

Time (PDT) Temp. Dew Point Humidity Pressure Visibility Wind Dir Wind Speed Gust Speed Precip Events Conditions
12:53 AM 55.0 °F 28.0 °F 35% 29.88 in 10.0 mi SW 4.6 mph - N/A   Clear
1:53 AM 52.0 °F 35.1 °F 53% 29.88 in 10.0 mi SSW 8.1 mph - N/A   Clear
2:53 AM 53.1 °F 33.1 °F 47% 29.87 in 10.0 mi SSW 6.9 mph - N/A   Clear
3:53 AM 50.0 °F 30.9 °F 48% 29.87 in 10.0 mi SSW 4.6 mph - N/A   Clear
4:53 AM 48.9 °F 28.0 °F 44% 29.88 in 10.0 mi SSW 6.9 mph - N/A   Clear
5:53 AM 48.0 °F 28.0 °F 46% 29.90 in 10.0 mi SSW 8.1 mph - N/A   Clear
6:53 AM 53.1 °F 28.9 °F 40% 29.90 in 10.0 mi SSW 6.9 mph - N/A   Clear
7:53 AM 59.0 °F 27.0 °F 29% 29.91 in 10.0 mi West 3.5 mph - N/A   Clear
8:53 AM 64.0 °F 23.0 °F 21% 29.91 in 10.0 mi Calm Calm - N/A   Clear
9:53 AM 66.9 °F 21.9 °F 18% 29.91 in 10.0 mi Calm Calm - N/A   Clear
10:53 AM 71.1 °F 19.9 °F 14% 29.90 in 10.0 mi NNW 6.9 mph - N/A   Clear
11:53 AM 73.9 °F 21.9 °F 14% 29.89 in 10.0 mi West 5.8 mph - N/A   Clear
12:53 PM 75.9 °F 26.1 °F 16% 29.88 in 10.0 mi SW 13.8 mph 18.4 mph N/A   Clear
1:53 PM 75.0 °F 30.9 °F 20% 29.88 in 10.0 mi WSW 11.5 mph 20.7 mph N/A   Clear
2:53 PM 77.0 °F 33.1 °F 20% 29.86 in 10.0 mi West 20.7 mph 28.8 mph N/A   Clear
3:53 PM 77.0 °F 36.0 °F 23% 29.85 in 10.0 mi WSW 19.6 mph - N/A   Clear
4:53 PM 75.0 °F 39.0 °F 27% 29.85 in 10.0 mi SW 25.3 mph 29.9 mph N/A   Clear
5:53 PM 73.0 °F 37.0 °F 27% 29.84 in 10.0 mi SW 24.2 mph 29.9 mph N/A   Clear
6:53 PM 70.0 °F 37.0 °F 30% 29.85 in 10.0 mi SW 24.2 mph 31.1 mph N/A   Clear
7:53 PM 64.9 °F 41.0 °F 42% 29.88 in 10.0 mi West 15.0 mph - N/A   Clear
8:53 PM 63.0 °F 43.0 °F 48% 29.89 in 10.0 mi WNW 8.1 mph - N/A   Clear
9:53 PM 60.1 °F 39.9 °F 47% 29.90 in 10.0 mi West 8.1 mph - N/A   Clear
10:53 PM 60.1 °F 39.9 °F 47% 29.91 in 10.0 mi West 15.0 mph - N/A   Clear
11:53 PM 61.0 °F 35.1 °F 38% 29.89 in 10.0 mi WSW 18.4 mph - N/A   Clear